Location: Central Springs Elementary School at Manly
(43.2859°N, 93.1959°W)
Time: 07:56:41
(UTC+00:00)

UNISAT 6 - Pass Details

Date: 12 December 2024
Orbit: 584 x 653 km, 97.7° (Epoch: 18 January)

Event Time Altitude Azimuth Distance (km) Brightness Sun altitude
Rises 23:23:21 0° 2° (N) 2,832 ? -8.2°
Reaches altitude 10° 23:25:40 10° 353° (N) 1,933 ? -8.6°
Maximum altitude 23:29:23 32° 290° (WNW) 1,043 ? -9.2°
Drops below altitude 10° 23:33:08 10° 228° (SW) 1,951 ? -9.9°
Sets 23:35:29 0° 218° (SW) 2,862 ? -10.3°
